[[{"header":{"parameterUnit":"m.s-1","parameterCategory":1,"la1":30.2991,"la2":30.254,"lo1":-89.0895,"lo2":-89.0444,"dy":0.0017,"dx":0.0017,"nx":28,"ny":28,"refTime":"2024-02-29T09:00:00:Z","depth":0,"parameterNumber":2,"parameterNumberName":"U-component_of_WINDS"},"data":[0,0,0,0,0,0,0,0,0,0,0,0,0,0,0,0,0,0,0,0,0,0,0,0,0,0,0,0,0,0,0,0,0,0,0,0,0,0,0,0,0,0,0,0,0,0,0,0,0,0,0,0,0,0,0,0,0,0,-7.2326,-7.2326,0,-7.2375,-7.2375,-7.2376,-7.2239,-7.2235,-7.223,-7.2226,-7.2275,-7.228,-7.2285,0,0,0,0,0,0,0,0,0,0,0,0,0,-7.2111,-7.2116,-7.2325,-7.2326,-7.2327,-7.2375,-7.2375,-7.2376,-7.224,-7.2234,-7.2229,-7.2224,-7.2273,-7.2279,-7.2286,0,0,0,0,0,0,0,0,0,0,0,0,0,-7.2187,-7.2117,-7.2325,-7.2265,-7.226,-7.2374,-7.2375,-7.2376,-7.2241,-7.2234,-7.2228,-7.2222,-7.2271,-7.2279,-7.2286,-7.2462,0,0,-7.231,-7.2314,0,0,0,0,0,0,0,0,-7.2182,-7.2194,-7.2273,-7.2269,-7.2264,-7.2294,-7.2317,-7.2405,-7.2242,-7.2248,-7.2226,-7.2219,-7.2286,-7.2292,-7.2315,-7.2464,-7.2466,-7.2311,-7.2316,-7.2319,-7.2321,0,0,0,0,0,0,0,-7.2177,-7.2192,-7.2345,-7.2274,-7.2269,-7.2234,-7.2238,-7.2333,-7.2302,-7.2247,-7.2237,-7.2245,-7.2282,-7.2308,-7.2316,-7.2467,-7.2311,-7.2318,-7.2323,-7.2326,-7.2759,-7.2766,0,0,0,0,0,0,-7.218,-7.2188,-7.2343,-7.2346,-7.2207,-7.2243,-7.2247,-7.2291,-7.2301,-7.2296,-7.225,-7.2238,-7.2298,-7.2307,-7.2317,-7.252,-7.2319,-7.2327,-7.2331,-7.2752,-7.2761,-7.2768,0,0,0,0,0,0,-7.2176,-7.2195,-7.2341,-7.2265,-7.228,-7.2253,-7.2303,-7.2295,-7.232,-7.2303,-7.2297,-7.2282,-7.2293,-7.2306,-7.2426,-7.252,-7.233,-7.2337,-7.2744,-7.2755,-7.2764,-7.293,0,0,0,0,0,0,-7.2171,-7.2195,-7.2262,-7.2267,-7.2285,-7.2451,-7.2309,-7.2301,-7.2335,-7.232,-7.2332,-7.2327,-7.2289,-7.2415,-7.2434,-7.2527,-7.2343,-7.2736,-7.2749,-7.2761,-7.2916,-7.2945,-7.297,0,0,0,0,0,-7.2163,-7.2307,-7.2266,-7.2285,-7.2369,-7.2457,-7.2467,-7.2421,-7.2343,-7.2409,-7.2398,-7.2327,-7.2508,-7.2429,-7.2449,-7.2546,-7.2729,-7.2745,-7.276,-7.2904,-7.2939,-7.2969,0,0,0,0,0,0,-7.2313,-7.2306,-7.2261,-7.2411,-7.2436,-7.2434,-7.2516,-7.246,-7.2506,-7.249,-7.243,-7.2434,-7.2565,-7.2568,-7.248,-7.2715,-7.2605,-7.2625,-7.2708,-7.2741,-7.2767,-7.2762,-7.235,0,0,0,0,0,-7.2363,-7.2436,-7.2427,-7.256,-7.2574,-7.2544,-7.258,-7.2543,-7.2566,-7.2575,-7.2572,-7.2597,-7.2658,-7.27,-7.2756,-7.2917,-7.2916,-7.2994,-7.302,-7.3042,-7.3059,-7.3141,-7.3175,-7.2818,-7.2818,-7.2818,0,0,-7.2468,-7.2473,-7.2523,-7.259,-7.2604,-7.268,-7.2553,-7.2639,-7.2694,-7.2588,-7.27,-7.27,-7.2723,-7.2864,-7.2926,-7.287,-7.3158,-7.3062,-7.3079,-7.3084,-7.3161,-7.3194,-7.3224,-7.2829,-7.2827,-7.2825,0,0,-7.2696,-7.2709,-7.282,-7.2837,-7.2861,-7.284,-7.2867,-7.2874,-7.2869,-7.2982,-7.2903,-7.2968,-7.3076,-7.3095,-7.3119,-7.3355,-7.329,-7.3375,-7.3513,-7.3594,-7.3622,-7.3646,-7.3727,-7.3757,-7.3393,-7.3393,-7.3394,0,-7.2822,-7.2934,-7.2884,-7.2975,-7.3005,-7.2914,-7.3024,-7.3043,-7.3085,-7.3107,-7.3045,-7.3178,-7.3188,-7.333,-7.3387,-7.3411,-7.3438,-7.3372,-7.3622,-7.3646,-7.3668,-7.3744,-7.3775,-7.3403,-7.3402,-7.3401,-7.34,0,-7.3087,-7.3165,-7.3252,-7.3294,-7.3335,-7.3435,-7.3399,-7.3446,-7.3405,-7.339,-7.3505,-7.3514,-7.3568,-7.36,-7.3561,-7.3737,-7.3701,-7.3632,-7.3519,-7.3713,-7.3783,-7.3812,-7.3417,-7.3414,-7.3411,-7.3408,0,0,-7.3408,-7.3422,-7.3454,-7.3471,-7.3491,-7.355,-7.3646,-7.37,-7.374,-7.3773,-7.3849,-7.3944,-7.3879,-7.3906,-7.3869,-7.3941,-7.4123,-7.3862,-7.3861,-7.3907,-7.4313,-7.4363,-7.4398,-7.4082,-7.4087,-7.4092,-7.431,0,-7.3631,-7.3795,-7.3753,-7.3915,-7.3986,-7.39,-7.3983,-7.4004,-7.3993,-7.405,-7.4038,-7.4104,-7.4016,-7.4031,-7.4098,-7.4087,-7.4203,-7.4071,-7.415,-7.4154,-7.4143,-7.4435,-7.4488,-7.4693,-7.4338,-7.4342,-7.4346,0,-7.3911,-7.3954,-7.4124,-7.4131,-7.4159,-7.4234,-7.4279,-7.4337,-7.4358,-7.4344,-7.4375,-7.4323,-7.4416,-7.4306,-7.4432,-7.4343,-7.4373,-7.4373,-7.438,-7.4382,-7.4259,-7.4442,-7.4758,-7.4787,-7.4389,-7.4386,-7.4383,0,-7.4124,-7.4225,-7.4338,-7.4356,-7.4368,-7.4423,-7.443,-7.4445,-7.448,-7.452,-7.4541,-7.4592,-7.4619,-7.4659,-7.4621,-7.4545,-7.4752,-7.4639,-7.4741,-7.4742,-7.4785,-7.4782,-7.5107,-7.4812,-7.4812,-7.4811,-7.481,0,-7.4375,-7.4481,-7.4434,-7.4504,-7.462,-7.457,-7.4687,-7.4684,-7.4698,-7.4765,-7.4695,-7.4759,-7.4707,-7.4767,-7.4738,-7.4845,-7.4859,-7.4849,-7.4839,-7.4853,-7.4853,-7.4869,-7.4852,-7.4819,-7.4817,-7.4816,-7.4814,0,-7.4631,-7.4604,-7.4721,-7.4723,-7.4726,-7.4812,-7.4812,-7.4876,-7.486,-7.4945,-7.4963,-7.4938,-7.5003,-7.4971,-7.504,-7.502,-7.5157,-7.513,-7.515,-7.5141,-7.5243,-7.5232,-7.5585,-7.5628,-7.531,-7.5313,-7.5316,0,-7.479,-7.487,-7.4881,-7.492,-7.4932,-7.4998,-7.5033,-7.4988,-7.5027,-7.5057,-7.5117,-7.5177,-7.5221,-7.5331,-7.5318,-7.5369,-7.5341,-7.5461,-7.5348,-7.5358,-7.5338,-7.5332,-7.5338,-7.5482,-7.5486,-7.5489,-7.5492,0,-7.5075,-7.5058,-7.5111,-7.5161,-7.5204,-7.5241,-7.5271,-7.5308,-7.5263,-7.5311,-7.5377,-7.5412,-7.5482,-7.5541,-7.5586,-7.5592,-7.5534,-7.5528,-7.5554,-7.5566,-7.5572,-7.5566,-7.5207,-7.5519,-7.5516,-7.5514,-7.5513,-7.5512,-7.5285,-7.5351,-7.5368,-7.5429,-7.5448,-7.5478,-7.5537,-7.5529,-7.5584,-7.5637,-7.5607,-7.5684,-7.5702,-7.5756,-7.577,-7.5829,-7.5781,-7.5819,-7.5827,-7.5836,-7.5848,-7.5567,-7.5838,-7.5837,-7.5836,-7.5835,-7.5835,0,-7.5563,-7.557,-7.5627,-7.5671,-7.572,-7.5663,-7.5693,-7.5737,-7.5806,-7.5828,-7.5874,-7.5949,-7.6006,-7.5999,-7.605,-7.6099,-7.6073,-7.6113,-7.6107,-7.6109,-7.589,-7.5861,-7.6133,-7.6133,-7.6133,-7.6133,-7.6133,-7.6133,-7.5712,-7.582,-7.5805,-7.592,-7.5926,-7.6001,-7.6023,-7.6049,-7.6066,-7.6154,-7.6201,-7.6196,-7.6206,-7.6258,-7.6307,-7.6303,-7.6323,-7.6373,-7.6359,-7.6154,-7.6125,-7.6096,-7.6068,-7.6379,-7.6379,-7.6572,-7.6574,-7.6575]},{"header":{"parameterUnit":"m.s-1","parameterCategory":1,"la1":30.2991,"la2":30.254,"lo1":-89.0895,"lo2":-89.0444,"dy":0.0017,"dx":0.0017,"nx":28,"ny":28,"refTime":"2024-02-29T09:00:00:Z","depth":0,"parameterNumber":3,"parameterNumberName":"V-component_of_WINDS"},"data":[0,0,0,0,0,0,0,0,0,0,0,0,0,0,0,0,0,0,0,0,0,0,0,0,0,0,0,0,0,0,0,0,0,0,0,0,0,0,0,0,0,0,0,0,0,0,0,0,0,0,0,0,0,0,0,0,0,0,-0.3841,-0.384,0,-0.3791,-0.3791,-0.379,-0.3776,-0.3776,-0.3776,-0.3776,-0.3727,-0.3726,-0.3724,0,0,0,0,0,0,0,0,0,0,0,0,0,-0.3921,-0.392,-0.3841,-0.384,-0.3839,-0.3791,-0.3791,-0.379,-0.3775,-0.3776,-0.3776,-0.3776,-0.3728,-0.3726,-0.3724,0,0,0,0,0,0,0,0,0,0,0,0,0,-0.388,-0.3919,-0.3841,-0.3826,-0.3825,-0.3792,-0.3791,-0.379,-0.3775,-0.3776,-0.3776,-0.3777,-0.3728,-0.3726,-0.3724,-0.3702,0,0,-0.3717,-0.3716,0,0,0,0,0,0,0,0,-0.3883,-0.3877,-0.3829,-0.3827,-0.3825,-0.379,-0.3801,-0.376,-0.3775,-0.3794,-0.3776,-0.3777,-0.3748,-0.3744,-0.3734,-0.37,-0.3697,-0.3716,-0.3715,-0.3714,-0.3713,0,0,0,0,0,0,0,-0.3886,-0.3879,-0.3821,-0.3828,-0.3826,-0.3822,-0.3817,-0.3793,-0.3769,-0.3793,-0.3791,-0.3786,-0.3747,-0.3736,-0.3733,-0.3697,-0.3716,-0.3714,-0.3713,-0.3712,-0.3638,-0.3638,0,0,0,0,0,0,-0.3891,-0.3882,-0.3823,-0.382,-0.3855,-0.382,-0.3814,-0.3801,-0.377,-0.3765,-0.3785,-0.3785,-0.374,-0.3735,-0.3731,-0.3701,-0.3714,-0.3712,-0.371,-0.3639,-0.3638,-0.3638,0,0,0,0,0,0,-0.3893,-0.3886,-0.3825,-0.385,-0.3842,-0.3818,-0.3804,-0.38,-0.3789,-0.3764,-0.376,-0.3779,-0.374,-0.3734,-0.3708,-0.3699,-0.3711,-0.3709,-0.364,-0.3639,-0.3638,-0.3642,0,0,0,0,0,0,-0.3895,-0.3886,-0.3878,-0.385,-0.3841,-0.3803,-0.3803,-0.3799,-0.3785,-0.3784,-0.3757,-0.3753,-0.374,-0.3712,-0.3706,-0.3696,-0.3707,-0.364,-0.3639,-0.3638,-0.3643,-0.3642,-0.3641,0,0,0,0,0,-0.3898,-0.3883,-0.3878,-0.3871,-0.3831,-0.3803,-0.3798,-0.3783,-0.3784,-0.3775,-0.3759,-0.3754,-0.3701,-0.3709,-0.3703,-0.3692,-0.3641,-0.3639,-0.3638,-0.3643,-0.3642,-0.3641,0,0,0,0,0,0,-0.3912,-0.3879,-0.3874,-0.3849,-0.3829,-0.3801,-0.3789,-0.3782,-0.3762,-0.3762,-0.3744,-0.3738,-0.3713,-0.37,-0.371,-0.3667,-0.3671,-0.3668,-0.3677,-0.3675,-0.3674,-0.3677,-0.3705,0,0,0,0,0,-0.3912,-0.3892,-0.3865,-0.3845,-0.3835,-0.3814,-0.3802,-0.3791,-0.377,-0.3761,-0.3743,-0.3723,-0.3701,-0.3688,-0.3667,-0.3641,-0.3633,-0.363,-0.3629,-0.3628,-0.3626,-0.3608,-0.3605,-0.3633,-0.3633,-0.3633,0,0,-0.3912,-0.3891,-0.3881,-0.3847,-0.3831,-0.381,-0.3807,-0.3786,-0.377,-0.3759,-0.3732,-0.3718,-0.3694,-0.3667,-0.3654,-0.3655,-0.3616,-0.3626,-0.3626,-0.3624,-0.3606,-0.3604,-0.3601,-0.3632,-0.3633,-0.3633,0,0,-0.3901,-0.3885,-0.3865,-0.3848,-0.3822,-0.3807,-0.3802,-0.3774,-0.3764,-0.3737,-0.3727,-0.3708,-0.3672,-0.3654,-0.364,-0.3619,-0.3612,-0.3613,-0.3607,-0.359,-0.3588,-0.3585,-0.3576,-0.3573,-0.3611,-0.3611,-0.3611,0,-0.3905,-0.3874,-0.3857,-0.3835,-0.382,-0.3807,-0.3786,-0.377,-0.3739,-0.3728,-0.3729,-0.3681,-0.3665,-0.3632,-0.3626,-0.3616,-0.3609,-0.3616,-0.3589,-0.3587,-0.3585,-0.3575,-0.3572,-0.3611,-0.3611,-0.3611,-0.3611,0,-0.3878,-0.3856,-0.3844,-0.3812,-0.3795,-0.3775,-0.3753,-0.3738,-0.3729,-0.3714,-0.3685,-0.3663,-0.3636,-0.3628,-0.362,-0.3593,-0.3594,-0.3593,-0.3596,-0.3582,-0.3573,-0.3569,-0.3611,-0.3611,-0.3611,-0.3611,0,0,-0.3877,-0.3833,-0.3829,-0.3813,-0.3782,-0.3764,-0.3742,-0.3714,-0.37,-0.3679,-0.3658,-0.3626,-0.3623,-0.3608,-0.3597,-0.3582,-0.3563,-0.3581,-0.358,-0.3577,-0.353,-0.353,-0.3526,-0.3558,-0.3558,-0.3557,-0.3531,0,-0.3861,-0.382,-0.3803,-0.3769,-0.3747,-0.3733,-0.3713,-0.3691,-0.3675,-0.3654,-0.3637,-0.3613,-0.3613,-0.3602,-0.3587,-0.3569,-0.3553,-0.357,-0.3538,-0.3537,-0.3544,-0.3522,-0.3523,-0.35,-0.3528,-0.3527,-0.3527,0,-0.3838,-0.3814,-0.3778,-0.3746,-0.3736,-0.3718,-0.369,-0.367,-0.3644,-0.3633,-0.3614,-0.3602,-0.3577,-0.3581,-0.3544,-0.3557,-0.3542,-0.3531,-0.3529,-0.3525,-0.3531,-0.3516,-0.3492,-0.3488,-0.3521,-0.3522,-0.3522,0,-0.3838,-0.3797,-0.3769,-0.3756,-0.3719,-0.3706,-0.369,-0.3664,-0.3647,-0.3622,-0.3611,-0.3584,-0.3569,-0.3547,-0.3528,-0.3534,-0.3493,-0.3496,-0.3482,-0.3482,-0.3474,-0.3475,-0.3446,-0.3467,-0.3467,-0.3467,-0.3467,0,-0.3822,-0.3801,-0.3768,-0.3751,-0.3725,-0.3705,-0.3679,-0.3662,-0.3638,-0.3617,-0.3603,-0.3583,-0.356,-0.3536,-0.3521,-0.3491,-0.3485,-0.3475,-0.3471,-0.3476,-0.3477,-0.3466,-0.3466,-0.3466,-0.3466,-0.3466,-0.3466,0,-0.3819,-0.3797,-0.3765,-0.3731,-0.3722,-0.3704,-0.3674,-0.3656,-0.3639,-0.3611,-0.3604,-0.3576,-0.3548,-0.3526,-0.349,-0.348,-0.3447,-0.3444,-0.3456,-0.3454,-0.344,-0.3441,-0.3403,-0.3396,-0.3422,-0.3422,-0.3422,0,-0.381,-0.3792,-0.3755,-0.3739,-0.3722,-0.3697,-0.3679,-0.3657,-0.3639,-0.3605,-0.3591,-0.3561,-0.3536,-0.349,-0.3467,-0.3438,-0.3433,-0.3421,-0.3429,-0.3433,-0.343,-0.3431,-0.3428,-0.342,-0.342,-0.342,-0.342,0,-0.3795,-0.3784,-0.3759,-0.3728,-0.3707,-0.3682,-0.3657,-0.3645,-0.3618,-0.3598,-0.3568,-0.3548,-0.3509,-0.3478,-0.3446,-0.3429,-0.3419,-0.3418,-0.3412,-0.3417,-0.3423,-0.3417,-0.3452,-0.3419,-0.3419,-0.3419,-0.3419,-0.3419,-0.3788,-0.377,-0.374,-0.3711,-0.3689,-0.3665,-0.3646,-0.3625,-0.3599,-0.3564,-0.3553,-0.3521,-0.3492,-0.3447,-0.3429,-0.3403,-0.3403,-0.3397,-0.3395,-0.3393,-0.3392,-0.3428,-0.3398,-0.3398,-0.3398,-0.3398,-0.3398,0,-0.3771,-0.375,-0.3724,-0.3688,-0.3664,-0.3656,-0.3627,-0.3608,-0.3579,-0.3553,-0.3527,-0.349,-0.346,-0.3433,-0.3401,-0.3385,-0.3379,-0.3377,-0.3378,-0.3373,-0.3395,-0.3401,-0.3382,-0.3382,-0.3382,-0.3382,-0.3382,-0.3382,-0.3759,-0.3728,-0.3713,-0.3669,-0.3649,-0.3616,-0.36,-0.3577,-0.3555,-0.3514,-0.3488,-0.347,-0.3443,-0.3408,-0.3379,-0.3371,-0.336,-0.3358,-0.3349,-0.337,-0.3372,-0.3374,-0.338,-0.3356,-0.3356,-0.333,-0.3329,-0.3329]}]]